www.pogodaiklimat.ru

Погода и климат >> Архив погоды >> Россия >> Краснодарский край >> Солох Аул


ПОГОДА в Солох Ауле

  • Прогноз погоды в Солох Ауле
  • Монитор погоды в Солох Ауле

АРХИВ ПОГОДЫ в Солох Ауле

Время (UTC), дата Ветер
(напр.,м/с)
 
Видим.   Явления Облачность Т
(С)
Тd
(С)
f
(%)
Тe
(С)
Тes
(С)
Комфортность P
(гПа)
Po
(гПа)
Тmin
(С)
Tmax
(С)
R
(мм)
R24
(мм)
S
(см)
15 9.07 штиль 0 20 км н/о +22.3 +18.7 80 +28 +28 душно 1011.0 961.3 +23.8
18 9.07 штиль 0 20 км н/о +18.4 +18.4 100 +19 +19 1011.9 961.5
21 9.07 штиль 0 20 км н/о +16.6 +16.6 100 +16 +16 1012.0 961.3
00 10.07 штиль 0 20 км н/о +15.7 +15.7 100 +15 +15 1011.0 960.2
03 10.07 штиль 0 20 км н/о +15.5 +14.2 92 +15 +15 1010.0 959.2 +15.5
06 10.07 штиль 0 20 км н/о +21.1 +15.2 69 +24 +24 комфорт 1008.6 958.8 +14.9
09 10.07 СЗ 1 20 км н/о +23.9 +17.4 67 +28 +28 душно 1007.2 958.0
12 10.07 З 1 20 км н/о +25.1 +17.1 61 +29 +29 душно 1006.4 957.4
15 10.07 Ю 1 20 км н/о +23.5 +18.6 74 +28 +28 душно 1006.1 956.7 +25.5
18 10.07 штиль 0 20 км н/о +19.7 +17.5 87 +22 +22 комфорт 1006.8 956.9
21 10.07 штиль 0 20 км н/о +18.6 +17.9 96 +20 +20 1006.4 956.3
00 11.07 штиль 0 20 км н/о +18.1 +15.7 86 +18 +18 1005.4 955.3
03 11.07 штиль 0 20 км н/о +18.2 +16.0 87 +19 +19 1004.2 954.1 +17.9
06 11.07 штиль 0 20 км н/о +20.6 +15.8 74 +23 +23 комфорт 1003.8 954.2 +17.5
09 11.07 штиль 0 20 км н/о +21.7 +18.3 81 +26 +26 душно 1004.0 954.6
12 11.07 штиль 0 20 км н/о +23.4 +19.1 77 +30 +30 очень
душно
1003.0 953.9
15 11.07 штиль 0 20 км н/о +24.7 +17.7 65 +29 +29 душно 1002.3 953.4 +24.7
18 11.07 штиль 0 20 км н/о +19.5 +16.5 83 +21 +21 комфорт 1002.4 952.7
21 11.07 штиль 0 20 км н/о +19.4 +17.4 88 +21 +21 комфорт 1002.4 952.7
00 12.07 штиль 0 7000 м н/о +17.3 952.4
03 12.07 В 2 20 км н/о +15.0 +15.0 100 +15 +15 1003.6 953.0 +15.0 10
06 12.07 В 2 20 км н/о +18.2 +14.3 78 +19 +19 1004.9 954.8 +14.8
21 12.07 штиль 0 20 км н/о +16.7 +16.7 100 +17 +17 1009.6 959.0
03 13.07 штиль 0 20 км н/о +15.9 +15.9 100 +16 +16 1008.8 958.1 +15.7
06 13.07 штиль 0 20 км н/о +19.1 +14.4 74 +20 +20 1009.5 959.3 +15.7
09 13.07 З 2 20 км н/о +19.5 +13.7 69 +22 +22 комфорт 1010.4 960.2
12 13.07 СЗ 2 20 км н/о +20.6 +13.3 63 +24 +24 комфорт 1010.6 960.6
15 13.07 СЗ 1 20 км н/о +20.6 +13.3 63 +24 +24 комфорт 1011.0 960.9 +21.0
18 13.07 штиль 0 20 км н/о +16.1 +15.9 99 +16 +16 1012.0 961.2
21 13.07 штиль 0 20 км н/о +14.2 +14.2 100 +14 +14 1012.0 960.8
00 14.07 штиль 0 20 км н/о +12.8 +12.8 100 +12 +12 1011.5 960.1
03 14.07 штиль 0 20 км н/о +13.0 +12.7 98 +12 +12 1011.1 959.7 +12.6
06 14.07 штиль 0 20 км н/о +18.6 +12.6 68 +19 +19 1010.1 959.7 +12.1
09 14.07 СЗ 2 20 км н/о +22.2 +11.6 51 +24 +24 комфорт 1008.6 958.9
12 14.07 З 2 20 км н/о +22.5 +11.9 51 +25 +25 комфорт 1007.9 958.3
15 14.07 штиль 0 20 км н/о +20.7 +13.4 63 +23 +23 комфорт 1007.6 957.7 +24.0
18 14.07 штиль 0 20 км н/о +18.0 +12.9 72 +18 +18 1007.1 956.8
21 14.07 штиль 0 20 км н/о +16.7 +12.7 77 +17 +17 1005.8 955.3
00 15.07 штиль 0 20 км н/о +15.9 +11.3 74 +16 +16 1004.5 953.9
06 15.07 штиль 0 20 км н/о +18.7 +12.7 68 +19 +19 1003.1 953.1 +15.2
09 15.07 В 2 20 км н/о +16.7 +16.7 100 +17 +17 1002.3 952.1
12 15.07 штиль 0 8000 м н/о +16.3 954.1
15 15.07 штиль 0 20 км н/о +18.2 +18.2 100 +19 +19 1004.4 954.4 +19.3 9
18 15.07 штиль 0 3800 м н/о +16.6 955.7
21 15.07 штиль 0 10 км н/о +16.9 955.8

 

Местоположение метеостанции Солох Аул (Краснодарский край, Россия): широта 43.80 долгота 39.63 высота над уровнем моря 442 м.

В архиве по умолчанию представлена погода в Солох Ауле за последнюю неделю. Архивные данные за месяц целиком и за предыдущие месяцы, начиная с января 2011 года, Вы можете получить, выбрав интересующий диапазон дат из раскрывающегося списка и нажав кнопку "Ввод!".


*Определитесь, кто Вы:
робот инопланетянин человек

Внимание! Время в таблицах - всемирное. Для получения местного времени необходимо прибавить поправку, которая равна 3 ч.

Смотрите также архив погоды в соседних городах и на ближайших метеорологических станциях:

Погода в Кичмае (Краснодарский край, Россия) (10 км)
Погода в Лазаревском (Краснодарский край, Россия) (27 км)
Погода в Сочи (Краснодарский край, Россия) (27 км)
Погода в Кепше (Краснодарский край, Россия) (39 км)
Погода в Магри (Краснодарский край, Россия) (45 км)
Погода в Гузерипле (Адыгея, Россия) (46 км)
Погода в Сочи аэропорт (Адлере) (Краснодарский край, Россия) (47 км)
Погода в Красной Поляне (Краснодарский край, Россия) (48 км)
Погода в Имеретинке (Краснодарский край, Россия) (51 км)
Погода на Кордоне Лаура (Краснодарский край, Россия) (55 км)

Пояснения к столбцам:

Ветер - указаны скорость ветра в м/с - средняя за 10 мин, порывы в срок и между сроками (в фигурных скобках) и направление, откуда дует ветер: С - северный, СВ - северо-восточный, В - восточный, ЮВ - юго-восточный, Ю - южный, ЮЗ - юго-западный, З - западный, СЗ - северо-западный.
Видимость - горизонтальная дальность видимости в метрах или километрах. При видимости от 1 до 10 км при отсутствии осадков обычно наблюдается дымка, при ухудшении видимости до 1 км и менее - туман. В сухую погоду видимость может ухудшаться дымом, пылью или мглою.
Явления - указаны атмосферные явления, наблюдавшиеся в срок или в последний час перед сроком; фигурными скобками обозначены явления, наблюдавшиеся между сроками (за 1-3 часа до срока); квадратными скобками обозначены град или гололедные отложения с указанием их диаметра в мм.
Облачность - указаны через наклонную черту общая и нижняя облачность в баллах и высота нижней границы облаков в метрах; квадратными скобками обозначены формы облаков: Ci - перистые, Cs - перисто-слоистые, Cc - перисто-кучевые, Ac - высококучевые, As - высокослоистые, Sc - слоисто-кучевые, Ns - слоисто-дождевые, Cu - кучевые, Cb - кучево-дождевые. Подробнее классификацию облаков см. в Атласе облаков (PDF).
T - Температура воздуха - температура, измеренная на высоте 2 м над землей.
Td - Температура точки росы - температура, при понижении до которой содержащийся в воздухе водяной пар достигнет насыщения.
f - Относительная влажность воздуха - влажноcть воздуха, измеренная на высоте 2 м над землей.
Te - Эффективная температура - температура, которую ощущает одетый по сезону человек в тени. Характеристика душности погоды. При расчете учитывается влияние влажности воздуха и скорости ветра на теплоощущения человека.
Tes - Эффективная температура на солнце - температура, которую ощущает человек, с поправкой на солнечный нагрев. Характеристика знойности погоды. Зависит от высоты солнца над горизонтом, облачности и скорости ветра. Ночью, в пасмурную погоду, а также при ветре 12 м/с и более поправка равна нулю.
P - Атмосферное давление - приведенное к уровню моря атмосферное давление.
Po - Атмосферное давление - измеренное на уровне метеостанции атмосферное давление.
Tmin - Минимальная температура - минимум температуры воздуха на высоте 2 м над землей.
Tmax - Максимальная температура - максимум температуры воздуха на высоте 2 м над землей.
R - Количество осадков - Количество выпавших осадков за период времени, мм. При наведении курсора мыши на число - период времени, за который выпало указанное количество осадков.
R24 - Количество осадков - Количество выпавших осадков за 24 часа, мм.
S - Снежный покров - Высота снежного покрова, см. При наведении курсора мыши на число - состояние снежного покрова и степень покрытия местности в баллах.